Regional Weather Roundup
Issued by NWS

Home | Current Version | Previous Version | Text Only | Print | Product List | Glossary On
Versions: 1 2 3 4 5 6 7 8 9 10 11 12 13 14 15 16 17 18 19 20 21 22 23 24 25 26 27 28 29 30 31 32 33 34 35 36 37 38 39 40 41 42 43 44 45 46 47 48 49 50
674
ASUS43 KDTX 232310
RWRMI
MICHIGAN HOURLY REGIONAL WEATHER ROUNDUP
NATIONAL WEATHER SERVICE DETROIT/PONTIAC MI
ISSUED BY NATIONAL WEATHER SERVICE GRAND RAPIDS MI
700 PM EDT TUE MAY 23 2017

NOTE: "FAIR" INDICATES FEW OR NO CLOUDS BELOW 12,000 FEET WITH NO
SIGNIFICANT WEATHER AND/OR OBSTRUCTION TO VISIBILITY.

MIZ047>049-052>055-059>063-066>070-074>076-081>083-240000-
SOUTHEAST LOWER MICHIGAN

CITY           SKY/WX    TMP DP  RH WIND       PRES   REMARKS
ADRIAN         CLOUDY    64  54  69 NE7       29.72F
ALMA           CLOUDY    61  57  87 SW6       29.77F
ANN ARBOR      CLOUDY    63  55  75 NW7       29.73F
BAD AXE        CLOUDY    61  55  82 E3        29.77S
DETROIT CITY   CLOUDY    69  46  43 E8        29.73F
DETROIT        CLOUDY    70  47  43 CALM      29.73F
FLINT          CLOUDY    63  54  72 NW10      29.75F
GROSSE ILE     CLOUDY    68  52  57 CALM      29.71F
HILLSDALE      CLOUDY    61  54  77 N9        29.72F
HOWELL         LGT RAIN  63  51  66 NW3       29.75F

CITY           SKY/WX    TMP DP  RH WIND       PRES   REMARKS
JACKSON        CLOUDY    61  55  81 CALM      29.75F
LANSING        CLOUDY    61  55  81 W5        29.77F
MASON          LGT RAIN  60  56  88 NW5       29.76F
MONROE         PTSUNNY   68  49  49 E5        29.71F
MT. CLEMENS    CLOUDY    67  51  56 E3        29.73F
PONTIAC        DRIZZLE   65  52  62 NW8       29.74S
PORT HOPE        N/A     54  51  90 SE5       29.75F
PORT HURON     CLOUDY    64  48  55 N3        29.75F
TRI CITIES     LGT RAIN  63  58  83 SW13      29.77S
YPSILANTI      LGT RAIN  67  55  65 NW12      29.74F
$$
MIZ043>046-050>051-056>058-064>065-071>073-077>080-240000-
SOUTHWEST LOWER MICHIGAN

CITY           SKY/WX    TMP DP  RH WIND       PRES   REMARKS
BATTLE CREEK   LGT RAIN  60  57  89 N7        29.75F
BENTON HARBOR  CLOUDY    62  55  77 E9        29.71F
BIG RAPIDS     CLOUDY    62  49  63 SW9       29.75R
COLDWATER      CLOUDY    61  58  91 N6        29.73F
HOLLAND        CLOUDY    61  54  77 E6        29.74F
GRAND RAPIDS   LGT RAIN  60  58  92 E5        29.75F
KALAMAZOO      LGT RAIN  60  54  80 N5        29.75F
MARSHALL       CLOUDY    60  59  96 CALM      29.74S
MOUNT PLEASANT LGT RAIN  61  51  69 SW10G17   29.76R
MUSKEGON       LGT RAIN  61  55  81 SE3       29.75F
STURGIS        CLOUDY    60  56  86 NE9       29.72F
$$
MIZ016>042-240000-
NORTHERN LOWER MICHIGAN

CITY           SKY/WX    TMP DP  RH WIND       PRES   REMARKS
ALPENA         CLOUDY    54  48  80 E6        29.80R
BEAVER ISLAND  CLOUDY    60  46  59 NE3       29.78S
BELLAIRE       PTSUNNY   65  48  54 NE6       29.74R
CADILLAC       RAIN      55  54  97 E5        29.75S
CHARLEVOIX     MOSUNNY   57  44  61 N9        29.78S
GAYLORD        LGT RAIN  60  48  64 E7        29.76S
HOUGHTON LAKE  LGT RAIN  57  55  93 NE3       29.76F FOG
MANISTEE       CLOUDY    59  53  80 N5        29.75R
OSCODA         LGT RAIN  55  50  86 CALM      29.76F
PELLSTON       PTSUNNY   62  44  51 E9        29.78S
TRAVERSE CITY  CLOUDY    60  43  53 N8        29.73S
LUDINGTON      CLOUDY    52  50  92 NW5       29.75R
$$
MIZ007>008-015-240000-
EASTERN UPPER MICHIGAN

CITY           SKY/WX    TMP DP  RH WIND       PRES   REMARKS
KINROSS        SUNNY     57  43  59 N14       29.79S
MACKINAC ISLAN MOSUNNY   58  42  56 E5        29.78S
NEWBERRY       MOSUNNY   57  46  65 N10       29.79S
S. S. MARIE    SUNNY     59  44  57 W10       29.78S
$$
MIZ004>006-011>014-085-240000-
CENTRAL UPPER MICHIGAN

CITY           SKY/WX    TMP DP  RH WIND       PRES   REMARKS
MANISTIQUE     CLOUDY    61  46  57 N10       29.77S
MENOMINEE      CLOUDY    52  49  89 VRB3      29.79S
SAWYER-GWINN   CLOUDY    48  41  76 N13       29.83S
$$
MIZ001>003-009>011-084-240000-
WESTERN UPPER MICHIGAN

CITY           SKY/WX    TMP DP  RH WIND       PRES   REMARKS
IRON MOUNTAIN  CLOUDY    60  41  49 VRB7      29.77F
HOUGHTON       CLOUDY    50  42  74 CALM      29.86R
COPPER HARBOR    N/A     45  42  89 CALM      29.87S
IRONWOOD       CLOUDY    53  45  74 N7        29.85F
$$

ABBREVIATIONS USED IN REMARKS
   TC - TEMPERATURE IN CELSIUS
  WCI - WIND CHILL INDEX
   HX - HEAT INDEX
  VSB - VISIBILITY





USA.gov is the U.S. government's official web portal to all federal, state and local government web resources and services.